{"data":{"norad_id":53637,"intl_designator":"2022-104BB","name":"STARLINK-4396","alt_names":[],"object_type":"PAYLOAD","status":"ACTIVE","operator":null,"country":"US","launch_date":"2022-08-28","launch_site_code":"AFETR","launch_vehicle":null,"mission":null,"orbit_class":"UNKNOWN","rcs_meters":null,"size_class":null,"mass_kg":null,"dimensions":null,"purposes":["comms"],"wikipedia_slug":null,"has_3d_model":false,"image_url":null,"decayed_at":null,"tle_current":{"epoch":"2026-05-24T16:10:48.688032Z","epoch_age_seconds":97076,"freshness":"FRESH","line1":"1 53637U 22104BB  26144.67417463  .00001142  00000+0  89852-4 0  9991","line2":"2 53637  53.2156 243.1936 0001533  83.9072 276.2094 15.08841314207696","mean_motion":15.08841314,"eccentricity":0.0001533,"inclination_deg":53.2156,"raan_deg":243.1936,"arg_perigee_deg":83.9072,"mean_anomaly_deg":276.2094,"bstar":8.9852e-5,"rev_number":20769,"period_min":95.437471564356,"perigee_km":538.67886214677,"apogee_km":540.79988304261,"semimajor_km":6917.8763725947,"source":"CELESTRAK","updated_at":"2026-05-25T13:38:17.482741Z"}}}